ASA1308 KSAN-KSEA

Flight info

Callsign ASA1308
Flight time N/A
Altitude 34000
Route PADRZ2 EHF SHIMR/N0457F360 LKV HAWKZ8
Aircraft B738/M-SDE2E3FGHIRWXY/LB1

Departure

Time N/A
Airport San Diego International Airport (KSAN)

Arrival

Time 2026-05-08 03:48
Airport Seattle–Tacoma International Airport (KSEA)
Time Latitude Longitude Altitude Speed Heading
2026-05-08 02:01 36.04865 -119.29617 33971 ft 447 kts 344°
2026-05-08 02:02 36.10870 -119.31755 33967 ft 448 kts 344°
2026-05-08 02:02 36.16857 -119.33888 33989 ft 449 kts 344°
2026-05-08 02:03 36.22856 -119.36030 33986 ft 447 kts 344°
2026-05-08 02:03 36.28798 -119.38154 33996 ft 447 kts 344°
2026-05-08 02:04 36.34780 -119.40295 34012 ft 446 kts 344°
2026-05-08 02:04 36.40754 -119.42439 34006 ft 446 kts 344°
2026-05-08 02:05 36.46735 -119.44587 34021 ft 447 kts 344°
2026-05-08 02:05 36.52705 -119.46735 34019 ft 447 kts 344°
2026-05-08 02:06 36.58663 -119.48882 34003 ft 447 kts 344°
2026-05-08 02:06 36.64642 -119.51040 34021 ft 447 kts 344°
2026-05-08 02:07 36.70595 -119.53192 34023 ft 447 kts 344°
2026-05-08 02:07 36.76579 -119.55359 34014 ft 447 kts 344°
2026-05-08 02:08 36.82567 -119.57531 34035 ft 447 kts 344°
2026-05-08 02:08 36.88539 -119.59701 34062 ft 447 kts 344°
2026-05-08 02:09 36.94498 -119.61869 34042 ft 447 kts 344°
2026-05-08 02:09 37.00435 -119.64033 34054 ft 448 kts 344°
2026-05-08 02:10 37.06452 -119.66229 34067 ft 448 kts 343°
2026-05-08 02:10 37.12432 -119.68417 34097 ft 447 kts 343°
2026-05-08 02:11 37.18394 -119.70600 34086 ft 447 kts 343°
2026-05-08 02:11 37.24358 -119.72788 34097 ft 446 kts 343°
2026-05-08 02:12 37.30351 -119.74991 34138 ft 446 kts 343°
2026-05-08 02:12 37.36291 -119.77177 34153 ft 447 kts 343°
2026-05-08 02:13 37.42245 -119.79372 34179 ft 446 kts 343°
2026-05-08 02:13 37.48219 -119.81578 34213 ft 446 kts 343°
2026-05-08 02:14 37.54187 -119.83786 34215 ft 448 kts 343°
2026-05-08 02:14 37.60155 -119.85998 34225 ft 447 kts 343°
2026-05-08 02:15 37.66101 -119.88205 34230 ft 447 kts 343°
2026-05-08 02:15 37.72065 -119.90422 34247 ft 446 kts 343°
2026-05-08 02:16 37.78040 -119.92647 34231 ft 448 kts 343°
2026-05-08 02:16 37.84041 -119.94885 34249 ft 448 kts 343°
2026-05-08 02:17 37.90030 -119.97123 34247 ft 448 kts 343°
2026-05-08 02:17 37.95998 -119.99357 34265 ft 448 kts 343°
2026-05-08 02:18 38.01965 -120.01594 34277 ft 448 kts 343°
2026-05-08 02:18 38.07959 -120.03845 34287 ft 448 kts 343°
2026-05-08 02:19 38.13931 -120.06092 34279 ft 448 kts 343°
2026-05-08 02:19 38.19912 -120.08318 34280 ft 447 kts 344°
2026-05-08 02:20 38.26012 -120.09811 34291 ft 448 kts 353°
2026-05-08 02:20 38.32225 -120.10473 34298 ft 448 kts 355°
2026-05-08 02:21 38.38456 -120.11032 34290 ft 448 kts 355°
2026-05-08 02:21 38.44649 -120.11588 34302 ft 448 kts 355°
2026-05-08 02:22 38.50846 -120.12149 34311 ft 448 kts 355°
2026-05-08 02:22 38.57067 -120.12716 34318 ft 448 kts 355°
2026-05-08 02:23 38.63295 -120.13284 34313 ft 448 kts 355°
2026-05-08 02:23 38.69522 -120.13855 34322 ft 447 kts 355°
2026-05-08 02:24 38.75749 -120.14426 34306 ft 447 kts 355°
2026-05-08 02:24 38.81962 -120.14998 34289 ft 447 kts 355°
2026-05-08 02:25 38.88148 -120.15568 34285 ft 447 kts 355°
2026-05-08 02:25 38.94338 -120.16139 34283 ft 447 kts 355°
2026-05-08 02:26 39.00559 -120.16715 34285 ft 447 kts 355°
2026-05-08 02:26 39.06734 -120.17287 34299 ft 447 kts 355°
2026-05-08 02:27 39.12959 -120.17864 34283 ft 447 kts 355°
2026-05-08 02:27 39.19138 -120.18438 34283 ft 447 kts 355°
2026-05-08 02:28 39.25339 -120.19016 34293 ft 447 kts 355°
2026-05-08 02:28 39.31558 -120.19596 34288 ft 447 kts 355°
2026-05-08 02:29 39.37724 -120.20172 34287 ft 447 kts 355°
2026-05-08 02:29 39.43918 -120.20752 34272 ft 446 kts 355°
2026-05-08 02:30 39.50116 -120.21333 34263 ft 446 kts 355°
2026-05-08 02:30 39.56339 -120.21918 34258 ft 446 kts 355°
2026-05-08 02:31 39.62532 -120.22501 34253 ft 447 kts 355°
2026-05-08 02:31 39.68700 -120.23083 34257 ft 447 kts 355°
2026-05-08 02:32 39.74904 -120.23669 34245 ft 447 kts 355°
2026-05-08 02:32 39.81099 -120.24255 34247 ft 446 kts 355°
2026-05-08 02:33 39.87296 -120.24842 34252 ft 446 kts 355°
2026-05-08 02:33 39.93485 -120.25429 34255 ft 447 kts 355°
2026-05-08 02:34 39.99651 -120.26016 34261 ft 447 kts 355°
2026-05-08 02:34 40.05866 -120.26608 34248 ft 446 kts 355°
2026-05-08 02:35 40.12071 -120.27201 34240 ft 445 kts 355°
2026-05-08 02:35 40.18219 -120.27789 34226 ft 444 kts 355°
2026-05-08 02:36 40.24401 -120.28381 34208 ft 444 kts 355°
2026-05-08 02:36 40.30567 -120.28973 34211 ft 445 kts 355°
2026-05-08 02:37 40.36733 -120.29567 34206 ft 445 kts 355°
2026-05-08 02:37 40.42869 -120.30157 34218 ft 444 kts 355°
2026-05-08 02:38 40.49028 -120.30753 34220 ft 443 kts 355°
2026-05-08 02:38 40.55153 -120.31345 34227 ft 443 kts 355°
2026-05-08 02:39 40.61301 -120.31941 34238 ft 443 kts 355°
2026-05-08 02:39 40.67438 -120.32536 34247 ft 442 kts 355°
2026-05-08 02:40 40.73587 -120.33134 34252 ft 441 kts 355°
2026-05-08 02:40 40.79689 -120.33729 34249 ft 442 kts 355°
2026-05-08 02:41 40.85811 -120.34326 34246 ft 441 kts 355°
2026-05-08 02:41 40.91930 -120.34924 34240 ft 441 kts 355°
2026-05-08 02:42 40.98054 -120.35525 34226 ft 440 kts 354°
2026-05-08 02:42 41.04140 -120.36121 34225 ft 440 kts 354°
2026-05-08 02:43 41.10250 -120.36723 34223 ft 440 kts 354°
2026-05-08 02:43 41.16346 -120.37323 34227 ft 439 kts 354°
2026-05-08 02:44 41.22442 -120.37925 34223 ft 440 kts 354°
2026-05-08 02:44 41.28553 -120.38529 34222 ft 439 kts 354°
2026-05-08 02:45 41.34642 -120.39132 34209 ft 440 kts 354°
2026-05-08 02:45 41.40732 -120.39736 34200 ft 440 kts 354°
2026-05-08 02:46 41.46847 -120.40344 34188 ft 439 kts 354°
2026-05-08 02:46 41.52932 -120.40951 34185 ft 439 kts 354°
2026-05-08 02:47 41.58970 -120.41554 34192 ft 438 kts 354°
2026-05-08 02:47 41.65055 -120.42162 34204 ft 438 kts 354°
2026-05-08 02:48 41.71118 -120.42770 34203 ft 438 kts 354°
2026-05-08 02:48 41.77197 -120.43380 34205 ft 438 kts 354°
2026-05-08 02:49 41.83159 -120.44668 34203 ft 434 kts 340°
2026-05-08 02:49 41.88775 -120.47730 34198 ft 433 kts 335°
2026-05-08 02:50 41.94312 -120.50840 34191 ft 433 kts 336°
2026-05-08 02:50 41.99912 -120.53837 34188 ft 433 kts 337°
2026-05-08 02:51 42.05521 -120.56767 34185 ft 432 kts 338°
2026-05-08 02:51 42.11127 -120.59672 34186 ft 432 kts 338°
2026-05-08 02:52 42.16755 -120.62579 34188 ft 433 kts 338°
2026-05-08 02:52 42.22366 -120.65476 34189 ft 433 kts 337°
2026-05-08 02:53 42.27987 -120.68381 34191 ft 432 kts 337°
2026-05-08 02:53 42.33596 -120.71285 34193 ft 432 kts 337°
2026-05-08 02:54 42.39203 -120.74191 34197 ft 431 kts 337°
2026-05-08 02:54 42.44812 -120.77105 34206 ft 430 kts 337°
2026-05-08 02:55 42.53169 -120.81455 34206 ft 430 kts 336°
2026-05-08 02:56 42.58788 -120.84388 34197 ft 431 kts 337°
2026-05-08 02:56 42.64392 -120.87318 34191 ft 431 kts 336°
2026-05-08 02:57 42.69977 -120.90243 34189 ft 430 kts 336°
2026-05-08 02:57 42.75524 -120.93154 34193 ft 429 kts 336°
2026-05-08 02:58 42.81070 -120.96071 34199 ft 428 kts 336°
2026-05-08 02:58 42.86618 -120.98994 34201 ft 428 kts 336°
2026-05-08 02:59 42.92181 -121.01931 34202 ft 429 kts 336°
2026-05-08 02:59 42.97736 -121.04869 34201 ft 429 kts 336°
2026-05-08 03:00 43.03293 -121.07814 34199 ft 428 kts 336°
2026-05-08 03:00 43.08794 -121.10735 34199 ft 426 kts 336°
2026-05-08 03:01 43.14351 -121.13691 34191 ft 427 kts 336°
2026-05-08 03:01 43.19868 -121.16632 34184 ft 426 kts 336°
2026-05-08 03:02 43.25404 -121.19589 34177 ft 427 kts 336°
2026-05-08 03:02 43.30934 -121.22548 34182 ft 428 kts 336°
2026-05-08 03:03 43.36491 -121.25528 34180 ft 428 kts 336°
2026-05-08 03:03 43.42049 -121.28513 34177 ft 428 kts 336°
2026-05-08 03:04 43.47607 -121.31505 34162 ft 428 kts 336°
2026-05-08 03:04 43.53130 -121.34483 34167 ft 428 kts 336°
2026-05-08 03:05 43.58689 -121.37488 34158 ft 428 kts 336°
2026-05-08 03:05 43.64226 -121.40485 34156 ft 428 kts 336°
2026-05-08 03:06 43.69771 -121.43494 34154 ft 427 kts 336°
2026-05-08 03:06 43.75294 -121.46497 34151 ft 427 kts 336°
2026-05-08 03:07 43.80838 -121.49517 34138 ft 428 kts 336°
2026-05-08 03:07 43.86353 -121.52527 34137 ft 427 kts 336°
2026-05-08 03:08 43.91907 -121.55564 34133 ft 427 kts 336°
2026-05-08 03:08 43.97435 -121.58596 34138 ft 428 kts 336°
2026-05-08 03:09 44.02971 -121.61654 34135 ft 433 kts 336°
2026-05-08 03:09 44.08579 -121.64736 34139 ft 432 kts 336°
2026-05-08 03:10 44.14168 -121.67806 34134 ft 426 kts 335°
2026-05-08 03:10 44.19665 -121.70839 34136 ft 426 kts 335°
2026-05-08 03:11 44.25164 -121.73882 34140 ft 426 kts 336°
2026-05-08 03:11 44.30662 -121.76930 34135 ft 426 kts 335°
2026-05-08 03:12 44.36196 -121.80005 34121 ft 426 kts 336°
2026-05-08 03:12 44.41697 -121.83068 34122 ft 427 kts 335°
2026-05-08 03:13 44.47201 -121.86140 34116 ft 426 kts 336°
2026-05-08 03:13 44.52717 -121.89223 34108 ft 426 kts 335°
2026-05-08 03:14 44.58199 -121.92295 34112 ft 426 kts 335°
2026-05-08 03:14 44.63708 -121.95388 34099 ft 425 kts 335°
2026-05-08 03:15 44.69213 -121.98485 34105 ft 424 kts 335°
2026-05-08 03:15 44.74712 -122.01586 34099 ft 426 kts 336°
2026-05-08 03:16 44.80207 -122.04690 34089 ft 426 kts 335°
2026-05-08 03:16 44.85739 -122.07821 34092 ft 427 kts 336°
2026-05-08 03:17 44.91259 -122.10951 34083 ft 427 kts 335°
2026-05-08 03:17 44.96732 -122.14062 34074 ft 426 kts 336°
2026-05-08 03:18 45.02259 -122.17210 34075 ft 426 kts 336°
2026-05-08 03:18 45.07742 -122.20339 34075 ft 424 kts 336°
2026-05-08 03:19 45.13221 -122.23473 34075 ft 425 kts 335°
2026-05-08 03:19 45.18727 -122.26630 34075 ft 427 kts 335°
2026-05-08 03:20 45.24235 -122.29793 34068 ft 428 kts 335°
2026-05-08 03:20 45.29731 -122.32954 34071 ft 425 kts 335°
2026-05-08 03:21 45.35207 -122.36113 34066 ft 427 kts 335°
2026-05-08 03:21 45.40741 -122.39312 34070 ft 427 kts 335°
2026-05-08 03:22 45.46205 -122.42476 34067 ft 426 kts 335°
2026-05-08 03:22 45.51718 -122.45676 34068 ft 429 kts 335°
2026-05-08 03:23 45.57255 -122.48896 34066 ft 428 kts 335°
2026-05-08 03:23 45.62756 -122.52101 34068 ft 426 kts 335°
2026-05-08 03:24 45.68251 -122.55312 34066 ft 427 kts 335°
2026-05-08 03:24 45.73782 -122.58354 34066 ft 429 kts 339°
2026-05-08 03:25 45.79616 -122.60301 34066 ft 431 kts 346°
2026-05-08 03:25 45.85539 -122.61801 34062 ft 432 kts 347°
2026-05-08 03:26 45.91457 -122.63267 34062 ft 432 kts 347°
2026-05-08 03:26 45.97391 -122.64738 34061 ft 431 kts 347°
2026-05-08 03:27 46.03300 -122.66208 34066 ft 430 kts 346°
2026-05-08 03:27 46.06242 -122.66939 33881 ft 425 kts 346°
2026-05-08 03:27 46.09114 -122.67654 33289 ft 423 kts 346°
2026-05-08 03:27 46.12026 -122.68320 32548 ft 425 kts 347°
2026-05-08 03:28 46.14963 -122.68908 31763 ft 427 kts 348°
2026-05-08 03:28 46.17907 -122.69474 31132 ft 424 kts 348°
2026-05-08 03:28 46.20809 -122.70029 30636 ft 419 kts 348°
2026-05-08 03:28 46.23717 -122.70591 30054 ft 421 kts 348°
2026-05-08 03:29 46.26612 -122.71158 29459 ft 424 kts 348°
2026-05-08 03:29 46.29545 -122.71734 28844 ft 422 kts 348°
2026-05-08 03:29 46.32435 -122.72222 28211 ft 421 kts 351°
2026-05-08 03:29 46.35363 -122.72443 27575 ft 420 kts 354°
2026-05-08 03:30 46.41155 -122.72623 26360 ft 417 kts 355°
2026-05-08 03:30 46.47244 -122.72820 25089 ft 461 kts 355°
2026-05-08 03:31 46.53902 -122.73052 23657 ft 479 kts 355°
2026-05-08 03:31 46.60230 -122.73245 22353 ft 438 kts 355°
2026-05-08 03:32 46.63217 -122.73339 21706 ft 421 kts 355°
2026-05-08 03:32 46.66099 -122.73434 21087 ft 405 kts 355°
2026-05-08 03:32 46.68869 -122.73530 20484 ft 391 kts 355°
2026-05-08 03:32 46.71533 -122.73625 19893 ft 379 kts 355°
2026-05-08 03:33 46.74123 -122.73662 19321 ft 368 kts 358°
2026-05-08 03:33 46.76649 -122.73302 18787 ft 362 kts
2026-05-08 03:33 46.79034 -122.72179 18518 ft 363 kts 20°
2026-05-08 03:33 46.81256 -122.70449 18040 ft 365 kts 28°
2026-05-08 03:34 46.83334 -122.68288 17384 ft 370 kts 34°
2026-05-08 03:34 46.85362 -122.65911 16799 ft 371 kts 36°
2026-05-08 03:34 46.87350 -122.63593 16253 ft 370 kts 35°
2026-05-08 03:34 46.89365 -122.61272 15705 ft 368 kts 35°
2026-05-08 03:35 46.91539 -122.58813 15157 ft 364 kts 33°
2026-05-08 03:35 46.93592 -122.56814 14901 ft 352 kts 27°
2026-05-08 03:35 46.95761 -122.55330 14737 ft 336 kts 17°
2026-05-08 03:35 46.97964 -122.54280 14500 ft 327 kts 13°
2026-05-08 03:36 47.00106 -122.53373 14264 ft 319 kts 13°
2026-05-08 03:36 47.02209 -122.52488 14020 ft 312 kts 13°
2026-05-08 03:36 47.04283 -122.51602 13764 ft 306 kts 13°
2026-05-08 03:36 47.06325 -122.50721 13403 ft 304 kts 13°
2026-05-08 03:37 47.08357 -122.49940 13003 ft 302 kts
2026-05-08 03:37 47.10437 -122.49493 12605 ft 301 kts
2026-05-08 03:37 47.12496 -122.49148 12208 ft 300 kts
2026-05-08 03:37 47.14570 -122.48798 11814 ft 300 kts
2026-05-08 03:38 47.16658 -122.48431 11412 ft 299 kts
2026-05-08 03:38 47.18706 -122.48064 11028 ft 298 kts
2026-05-08 03:38 47.20760 -122.47726 10682 ft 295 kts
2026-05-08 03:38 47.22812 -122.47419 10237 ft 296 kts
2026-05-08 03:39 47.24855 -122.47114 9904 ft 293 kts
2026-05-08 03:39 47.26833 -122.46814 9767 ft 283 kts
2026-05-08 03:39 47.28798 -122.46515 9365 ft 283 kts
2026-05-08 03:39 47.30761 -122.46217 8979 ft 283 kts
2026-05-08 03:40 47.32720 -122.45917 8624 ft 281 kts
2026-05-08 03:40 47.34658 -122.45620 8323 ft 278 kts
2026-05-08 03:40 47.36540 -122.45461 8168 ft 268 kts 359°
2026-05-08 03:40 47.38414 -122.45472 7791 ft 269 kts 358°
2026-05-08 03:41 47.40268 -122.45505 7450 ft 268 kts 358°
2026-05-08 03:41 47.42120 -122.45522 7129 ft 266 kts 358°
2026-05-08 03:41 47.43972 -122.45530 6807 ft 264 kts 359°
2026-05-08 03:41 47.45801 -122.45533 6489 ft 262 kts 359°
2026-05-08 03:42 47.47620 -122.45534 6182 ft 260 kts 359°
2026-05-08 03:42 47.49405 -122.45536 6038 ft 250 kts 359°
2026-05-08 03:42 47.51102 -122.45536 5977 ft 238 kts 359°
2026-05-08 03:42 47.52741 -122.45532 5796 ft 233 kts 359°
2026-05-08 03:43 47.54375 -122.45521 5361 ft 240 kts 359°
2026-05-08 03:43 47.56060 -122.45509 5012 ft 241 kts 360°
2026-05-08 03:43 47.57711 -122.45209 4723 ft 240 kts 17°
2026-05-08 03:43 47.59158 -122.44063 4388 ft 237 kts 39°
2026-05-08 03:44 47.60241 -122.42293 4135 ft 228 kts 57°
2026-05-08 03:44 47.60856 -122.40162 3863 ft 222 kts 78°
2026-05-08 03:44 47.60945 -122.37907 3623 ft 219 kts 95°
2026-05-08 03:44 47.60561 -122.35732 3262 ft 223 kts 115°
2026-05-08 03:45 47.59690 -122.33868 2985 ft 220 kts 133°
2026-05-08 03:45 47.58504 -122.32503 2690 ft 215 kts 153°
2026-05-08 03:45 47.57108 -122.31803 2417 ft 207 kts 169°
2026-05-08 03:45 47.55718 -122.31692 2184 ft 197 kts 180°
2026-05-08 03:46 47.54369 -122.31714 1941 ft 188 kts 180°
2026-05-08 03:46 47.53108 -122.31728 1744 ft 177 kts 180°
2026-05-08 03:46 47.51913 -122.31739 1478 ft 166 kts 180°
2026-05-08 03:46 47.50780 -122.31749 1293 ft 158 kts 180°
2026-05-08 03:47 47.49688 -122.31758 1063 ft 156 kts 180°
2026-05-08 03:47 47.48627 -122.31767 957 ft 148 kts 180°
2026-05-08 03:47 47.47607 -122.31767 705 ft 144 kts 180°
2026-05-08 03:47 47.46590 -122.31779 523 ft 149 kts 181°
2026-05-08 03:48 47.45595 -122.31789 433 ft 127 kts 180°
2026-05-08 03:48 47.44917 -122.31802 433 ft 69 kts 180°
2026-05-08 03:48 47.44523 -122.31805 433 ft 41 kts 179°
2026-05-08 03:48 47.44291 -122.31731 433 ft 33 kts 157°
2026-05-08 03:49 47.44092 -122.31574 433 ft 31 kts 152°
2026-05-08 03:49 47.43905 -122.31415 433 ft 30 kts 149°
2026-05-08 03:49 47.43807 -122.31188 433 ft 26 kts 91°
2026-05-08 03:49 47.43805 -122.30924 433 ft 25 kts 90°
2026-05-08 03:50 47.43811 -122.30689 433 ft 18 kts 68°
2026-05-08 03:50 47.43917 -122.30637 433 ft 16 kts
2026-05-08 03:50 47.44066 -122.30637 433 ft 28 kts 360°
2026-05-08 03:50 47.44257 -122.30637 433 ft 25 kts
2026-05-08 03:51 47.44432 -122.30634 433 ft 24 kts
2026-05-08 03:51 47.44599 -122.30632 433 ft 23 kts
2026-05-08 03:51 47.44748 -122.30608 433 ft 20 kts 47°
2026-05-08 03:51 47.44765 -122.30410 433 ft 19 kts 102°
2026-05-08 03:52 47.44684 -122.30312 433 ft 15 kts 214°